Wind_Speed
35 36 35 33 33 31 30 29 29 26 23 22 23 25 22 16 14 13 14 17 18 19 23 28 32 34 36 36 38 39 43 47 49 55 57 62 69 74 69 50 39 31 32
38 37 35 35 34 32 31 30 29 26 23 22 22 22 14 13 11 12 14 18 18 23 27 29 31 30 31 34 36 40 43 48 52 56 62 64 70 73 67 49 38 28 18
39 37 36 36 35 34 33 31 29 27 24 23 23 23 17 15 13 13 15 18 21 24 25 28 29 30 33 35 36 39 43 48 53 58 62 66 68 69 63 55 43 33 18
39 38 38 37 36 35 34 32 32 29 27 25 25 24 21 17 18 18 16 18 21 23 23 26 28 28 30 32 36 38 43 48 52 55 60 64 66 67 62 49 43 35 25
41 41 41 38 37 36 34 33 34 30 30 28 27 27 25 22 20 22 21 21 24 25 26 27 28 29 29 31 34 39 41 45 50 53 56 59 63 64 60 51 41 37 25
44 42 41 38 38 37 35 35 36 33 32 32 29 31 29 26 24 25 26 26 27 28 28 29 30 31 33 35 37 40 44 45 46 50 52 54 56 58 59 54 45 38 34
42 41 40 40 39 37 37 36 38 36 35 35 33 33 33 32 30 29 31 32 32 31 31 31 32 32 33 35 38 42 45 47 47 48 50 51 51 52 52 55 49 42 34
45 44 43 42 40 39 38 38 38 39 38 37 37 36 37 37 37 35 34 36 35 34 34 34 35 36 37 37 37 43 46 48 49 49 48 48 49 46 46 47 50 43 37
48 47 47 46 41 39 38 38 39 40 40 39 39 38 39 41 42 41 40 40 39 39 38 38 38 40 41 42 43 45 46 47 48 47 44 44 44 43 40 41 43 44 36
47 51 49 43 40 39 39 39 40 41 42 42 42 41 41 42 45 46 45 43 42 43 42 43 43 43 45 46 47 48 47 46 49 45 38 39 40 39 36 34 37 36 37
53 51 46 42 43 40 39 41 42 42 44 43 43 43 43 44 44 46 47 48 47 46 46 46 47 47 48 48 49 50 50 48 50 43 39 40 40 39 36 30 29 31 30
55 46 43 41 42 40 40 43 42 42 43 44 45 45 46 45 44 46 46 46 47 47 47 47 47 48 49 48 48 49 47 48 46 39 42 40 41 37 33 31 27 24 24
50 42 40 38 41 43 43 43 41 43 43 43 44 45 47 46 44 45 46 45 44 44 44 45 44 44 46 50 50 48 44 41 41 41 40 40 41 34 30 30 29 25 21
45 38 41 43 46 44 43 44 43 44 44 44 45 45 46 46 44 46 45 45 43 41 42 42 44 46 48 47 46 44 42 40 38 39 40 43 41 39 32 32 33 29 25
44 41 42 45 45 44 43 43 43 44 46 46 46 45 45 43 45 45 46 45 43 43 44 44 45 44 42 42 42 43 43 44 43 42 41 41 41 37 33 29 29 30 30
46 45 45 45 45 47 45 45 45 46 48 50 48 43 44 44 46 47 46 46 46 45 43 41 41 43 45 45 46 46 45 43 42 41 41 42 41 40 37 34 30 31 29
42 42 42 42 43 43 44 43 43 44 44 48 48 48 48 47 46 46 46 46 43 43 42 42 42 46 49 50 49 48 47 46 46 44 43 42 42 42 39 37 33 31 31
42 43 43 42 39 37 36 37 39 42 45 48 51 51 47 47 47 48 46 44 42 45 46 47 47 49 48 50 50 49 48 47 47 46 45 44 43 41 39 38 35 34 35
35 34 34 34 35 36 36 37 40 43 46 51 51 49 49 50 48 47 46 46 48 51 52 49 49 50 50 51 51 51 51 51 49 49 48 46 45 43 40 38 36 35 34
35 35 35 35 35 35 37 39 41 39 47 50 52 53 53 50 48 47 49 49 50 53 53 51 49 50 51 52 52 53 53 53 52 51 49 47 45 42 41 39 37 35 34
30 31 31 33 35 37 39 40 41 43 45 46 47 48 48 48 47 49 49 51 55 55 54 51 51 53 54 56 55 55 55 55 54 51 48 46 45 43 42 38 38 35 34
30 32 34 35 37 39 42 44 45 47 47 46 48 50 51 50 50 50 54 56 56 55 55 55 56 56 57 57 57 57 57 55 53 50 49 48 46 45 43 42 41 39 39
29 30 33 37 39 39 40 42 43 45 45 46 47 48 50 51 54 55 57 57 57 57 58 58 58 59 59 59 58 57 55 54 53 52 51 50 49 47 45 43 42 41 41
30 32 34 35 36 38 39 42 44 46 48 50 52 54 55 56 56 57 57 58 58 59 59 60 60 59 59 58 57 57 57 56 55 54 53 51 50 49 48 48 48 48 48
35 36 37 39 41 44 46 48 50 52 53 54 55 56 56 57 57 57 58 58 59 60 60 60 59 59 59 59 58 58 58 57 57 55 55 54 54 54 55 56 56 55 54
39 41 43 44 46 48 50 52 53 53 54 54 55 56 56 56 57 57 58 58 59 59 60 60 60 60 61 61 61 61 62 62 63 63 63 63 63 62 62 61 61 61 60
Wind_Direction
241 243 246 250 253 254 257 260 264 269 271 275 285 294 306 325 335 337 347 350 345 343 347 343 342 343 344 346 346 346 350 356 358 355 354 352 351 351 350 342 329 309 274
241 244 245 249 251 253 255 258 262 262 265 268 276 288 291 309 323 324 323 330 337 340 344 343 341 342 343 346 349 352 356 356 357 356 356 357 354 357 1 358 352 338 299
240 243 246 248 251 251 253 256 256 257 257 260 266 276 275 289 299 303 303 309 327 331 336 338 340 339 340 343 347 349 350 353 354 356 357 357 358 1 5 10 8 5 355
240 243 246 247 250 251 253 254 253 250 250 253 257 263 268 272 280 288 294 301 309 310 316 325 328 332 337 341 343 345 345 347 350 353 356 358 360 1 8 10 12 10 2
240 243 246 246 248 251 253 251 249 246 248 249 251 255 263 267 272 278 283 289 295 302 308 314 318 322 328 332 336 339 342 344 347 349 352 356 360 0 5 12 13 10 1
238 241 244 245 248 251 251 249 249 244 248 249 249 251 257 262 268 273 278 286 290 296 303 309 314 319 325 330 332 335 337 341 344 346 348 352 357 1 2 7 13 11 10
238 242 245 246 249 252 250 247 247 246 246 249 250 250 255 260 263 270 274 279 285 294 300 305 311 315 321 326 331 333 334 336 339 343 344 346 351 359 1 2 8 14 15
243 245 246 246 249 249 249 247 247 247 247 250 252 253 254 259 263 265 271 277 283 290 296 301 305 310 314 317 323 324 328 332 334 337 340 340 343 349 0 359 1 8 15
243 240 245 246 250 250 251 249 248 248 250 251 254 255 258 259 262 266 271 275 282 286 291 296 299 304 307 311 314 319 324 327 329 331 334 337 339 342 348 357 358 4 9
246 244 244 249 252 251 250 250 250 249 250 252 254 256 259 262 264 267 270 275 280 284 290 293 297 300 304 308 311 314 317 319 321 326 329 332 337 338 339 346 355 356 3
247 247 245 251 252 251 251 251 250 250 251 254 257 259 261 262 266 269 272 276 278 282 286 290 295 299 303 306 309 312 313 316 318 324 328 328 332 334 334 334 343 352 353
247 249 248 252 253 252 251 251 251 253 253 255 258 260 262 265 268 270 272 274 277 281 285 290 294 298 303 307 309 312 310 313 316 316 320 322 328 332 327 328 327 336 347
247 253 250 257 253 252 251 251 252 253 255 257 259 261 263 266 270 271 273 274 276 281 286 290 294 297 299 302 304 306 308 309 311 312 316 320 326 326 321 323 322 317 322
250 248 253 255 249 251 253 253 254 255 257 259 261 263 265 267 270 273 276 277 278 281 284 289 293 295 298 300 302 303 305 306 309 313 316 318 320 319 315 307 311 308 301
246 246 246 244 248 250 253 255 257 259 259 261 263 264 265 268 270 273 274 276 278 280 284 289 291 293 294 298 301 303 303 304 307 310 312 313 313 312 310 310 306 306 292
247 245 245 250 251 250 254 257 260 264 265 263 261 262 264 266 268 270 273 276 278 281 285 286 287 291 294 297 299 301 302 303 304 306 307 308 307 307 306 306 305 301 302
250 250 247 250 252 254 255 257 260 264 265 264 263 262 264 267 270 273 274 276 279 281 281 284 287 289 291 295 297 298 300 300 301 303 303 303 302 303 304 303 303 299 297
239 239 241 244 247 250 253 256 261 264 266 263 263 263 263 266 267 270 272 275 279 279 281 285 287 288 292 293 295 296 297 298 299 299 299 300 301 302 302 301 298 296 291
238 241 243 245 247 251 254 257 262 264 267 266 261 260 261 262 265 268 270 276 281 281 282 284 287 288 291 292 293 295 295 295 296 296 297 299 299 299 297 295 292 287 289
241 244 245 246 248 252 255 258 259 259 263 263 260 260 263 265 267 269 273 277 281 282 282 284 286 288 289 289 290 291 292 292 292 293 295 296 297 296 294 293 293 290 289
250 251 252 254 254 254 256 259 262 262 257 257 260 263 264 265 267 270 272 276 279 281 283 284 285 285 286 287 288 289 289 289 290 291 292 293 293 292 292 291 288 287 283
253 257 259 261 262 263 263 263 263 262 258 258 261 262 263 266 270 275 278 279 280 281 283 283 283 284 285 285 285 285 285 287 288 289 290 291 291 289 288 286 284 280 283
255 253 254 254 253 254 256 258 258 259 262 265 269 272 275 276 276 275 276 278 279 281 281 282 282 282 283 282 283 284 285 286 287 288 288 288 287 286 284 283 282 280 279
257 257 258 259 261 264 266 268 270 271 273 273 274 274 275 275 275 276 277 278 279 279 279 279 279 280 280 281 282 282 283 284 286 286 286 285 284 282 281 281 280 278 278
262 264 265 266 267 268 269 270 271 272 272 273 275 275 276 277 278 278 279 278 277 277 277 278 279 279 279 279 280 281 282 283 284 283 283 282 280 279 278 277 277 277 277
266 268 268 268 269 270 272 273 274 275 277 278 279 279 279 279 279 278 278 278 278 278 278 278 278 278 278 278 279 280 281 282 282 281 281 280 280 279 278 277 277 276 276
Height
5659 5662 5664 5667 5669 5671 5672 5673 5673 5674 5675 5675 5675 5675 5672 5669 5668 5665 5662 5659 5656 5653 5649 5645 5641 5635 5630 5623 5616 5609 5600 5592 5582 5570 5557 5541 5522 5500 5473 5451 5439 5433 5436
5648 5652 5655 5658 5660 5662 5663 5664 5665 5666 5668 5667 5668 5667 5666 5664 5663 5660 5658 5655 5652 5648 5644 5640 5635 5630 5624 5618 5611 5603 5595 5585 5575 5565 5551 5536 5518 5496 5473 5453 5439 5430 5429
5639 5642 5646 5648 5651 5653 5654 5655 5656 5658 5660 5660 5660 5660 5659 5658 5657 5655 5652 5650 5647 5644 5639 5635 5630 5625 5619 5613 5606 5598 5591 5581 5571 5560 5547 5533 5516 5496 5475 5459 5446 5437 5433
5629 5633 5636 5638 5641 5644 5645 5646 5647 5650 5652 5652 5653 5653 5652 5650 5650 5649 5646 5644 5642 5638 5634 5630 5625 5620 5614 5607 5600 5594 5586 5577 5567 5556 5544 5531 5516 5499 5483 5467 5454 5445 5440
5619 5623 5625 5628 5632 5634 5635 5637 5638 5640 5643 5644 5644 5644 5644 5643 5642 5641 5640 5638 5635 5632 5628 5624 5619 5614 5609 5603 5596 5589 5582 5573 5564 5554 5543 5532 5519 5505 5489 5475 5463 5454 5447
5608 5612 5615 5619 5621 5623 5625 5626 5628 5631 5633 5634 5635 5635 5636 5635 5633 5633 5632 5630 5627 5624 5621 5617 5613 5609 5603 5598 5591 5584 5577 5569 5561 5552 5543 5532 5522 5510 5496 5483 5470 5461 5454
5597 5601 5605 5608 5611 5613 5615 5616 5618 5621 5623 5624 5625 5625 5626 5625 5625 5624 5623 5621 5619 5617 5613 5610 5606 5602 5597 5591 5585 5579 5572 5566 5559 5550 5541 5532 5523 5514 5503 5490 5479 5468 5460
5587 5591 5594 5597 5600 5602 5604 5606 5608 5610 5613 5614 5615 5615 5615 5616 5615 5614 5614 5613 5611 5608 5605 5602 5599 5595 5590 5585 5578 5573 5568 5562 5554 5547 5539 5532 5524 5516 5507 5497 5486 5476 5467
5577 5578 5582 5585 5588 5591 5594 5596 5598 5600 5602 5604 5604 5604 5605 5605 5605 5605 5604 5603 5602 5599 5596 5594 5591 5587 5583 5578 5573 5568 5562 5556 5551 5543 5537 5529 5522 5515 5508 5501 5493 5483 5475
5563 5566 5570 5574 5577 5580 5582 5585 5588 5589 5591 5593 5593 5594 5594 5594 5594 5594 5594 5593 5591 5589 5587 5584 5581 5578 5574 5570 5565 5560 5555 5550 5545 5538 5533 5527 5520 5514 5508 5502 5496 5489 5481
5550 5554 5560 5564 5566 5569 5571 5574 5576 5578 5580 5582 5582 5583 5583 5584 5583 5583 5582 5582 5580 5579 5576 5574 5571 5568 5565 5561 5556 5551 5546 5542 5537 5532 5526 5521 5516 5511 5506 5501 5496 5491 5485
5538 5544 5549 5554 5555 5557 5559 5561 5565 5567 5569 5570 5570 5571 5571 5572 5572 5572 5571 5569 5568 5567 5565 5563 5560 5558 5555 5551 5547 5541 5537 5533 5529 5524 5520 5516 5511 5506 5502 5498 5494 5490 5486
5526 5532 5537 5541 5544 5546 5548 5550 5553 5555 5557 5558 5558 5558 5559 5559 5559 5559 5558 5558 5556 5555 5554 5552 5549 5547 5544 5541 5536 5532 5528 5524 5520 5516 5512 5509 5505 5500 5497 5494 5490 5487 5485
5515 5520 5524 5529 5532 5534 5536 5539 5541 5543 5544 5545 5546 5547 5547 5548 5548 5547 5547 5546 5544 5543 5542 5541 5538 5536 5533 5529 5525 5522 5519 5514 5511 5508 5504 5501 5497 5493 5491 5488 5485 5483 5481
5503 5508 5512 5516 5519 5522 5524 5527 5530 5531 5532 5533 5534 5534 5535 5536 5535 5536 5534 5534 5533 5531 5530 5529 5527 5524 5521 5518 5515 5512 5509 5505 5502 5498 5495 5491 5488 5485 5482 5479 5477 5476 5474
5492 5497 5501 5505 5507 5510 5513 5515 5517 5518 5519 5520 5521 5521 5522 5522 5522 5523 5523 5522 5520 5519 5518 5517 5514 5512 5509 5507 5504 5501 5498 5495 5491 5488 5485 5482 5479 5475 5473 5471 5470 5468 5466
5482 5486 5490 5493 5495 5498 5500 5503 5504 5506 5507 5508 5509 5509 5508 5509 5510 5510 5510 5509 5508 5507 5505 5504 5502 5499 5496 5494 5492 5489 5485 5483 5480 5477 5474 5472 5469 5466 5464 5462 5460 5459 5458
5469 5473 5477 5480 5483 5485 5487 5489 5491 5493 5495 5495 5496 5496 5496 5496 5496 5496 5497 5497 5495 5493 5492 5491 5487 5485 5482 5480 5478 5475 5472 5470 5468 5465 5462 5459 5457 5455 5453 5451 5449 5448 5446
5459 5462 5465 5468 5471 5473 5475 5477 5479 5480 5481 5481 5482 5483 5482 5482 5482 5483 5484 5484 5480 5480 5478 5475 5472 5470 5467 5465 5463 5461 5458 5456 5454 5451 5448 5445 5443 5442 5440 5438 5437 5436 5434
5449 5452 5454 5456 5459 5461 5463 5465 5466 5467 5468 5468 5468 5468 5469 5469 5469 5469 5468 5468 5465 5465 5463 5461 5458 5455 5452 5450 5448 5446 5444 5442 5439 5436 5434 5432 5430 5428 5427 5425 5424 5424 5423
5439 5442 5444 5446 5448 5449 5451 5452 5453 5454 5454 5454 5454 5454 5454 5454 5454 5453 5452 5453 5451 5449 5447 5445 5442 5439 5436 5434 5432 5430 5428 5426 5423 5421 5418 5417 5416 5414 5413 5412 5411 5411 5410
5430 5432 5434 5435 5437 5438 5439 5440 5440 5440 5440 5440 5440 5440 5440 5439 5438 5438 5438 5436 5434 5431 5429 5427 5424 5422 5420 5418 5416 5413 5411 5409 5407 5405 5403 5402 5400 5399 5399 5398 5398 5397 5397
5421 5422 5423 5424 5425 5426 5426 5426 5427 5427 5427 5427 5426 5426 5425 5424 5423 5422 5421 5418 5416 5413 5411 5409 5406 5404 5402 5399 5397 5396 5394 5392 5390 5388 5386 5385 5384 5384 5383 5383 5383 5383 5382
5411 5413 5413 5414 5414 5414 5414 5415 5415 5415 5414 5413 5412 5411 5409 5407 5406 5404 5402 5399 5397 5395 5392 5390 5387 5385 5383 5381 5379 5377 5376 5374 5372 5370 5369 5368 5367 5367 5366 5366 5366 5366 5366
5401 5401 5402 5402 5402 5402 5402 5401 5401 5400 5399 5397 5395 5393 5391 5389 5387 5385 5382 5380 5378 5375 5373 5370 5368 5366 5364 5361 5360 5358 5356 5354 5352 5351 5350 5350 5349 5348 5348 5347 5347 5346 5346
5390 5390 5390 5389 5388 5388 5387 5385 5384 5382 5380 5379 5377 5374 5372 5370 5367 5365 5362 5359 5357 5355 5352 5350 5347 5345 5343 5341 5339 5337 5335 5333 5331 5329 5328 5328 5328 5327 5326 5326 5326 5325 5325